Time,TemperatureF,DewpointF,PressureIn,WindDirection,WindDirectionDegrees,WindSpeedMPH,WindSpeedGustMPH,Humidity,HourlyPrecipIn,Conditions,Clouds,dailyrainin,SoftwareType,DateUTC
2013-05-10 00:00:00,71.1,69.3,30.00,SSE,158,4.4,10.0,94,0.05,,BKN040,0.03,VWS V13.01,2013-05-09 14:00:00,
2013-05-10 00:15:00,70.7,68.9,30.00,SE,135,3.1,10.0,94,0.05,,BKN040,0.03,VWS V13.01,2013-05-09 14:15:00,
2013-05-10 00:30:00,71.0,69.2,29.99,SE,135,4.4,11.3,94,0.05,,BKN040,0.03,VWS V13.01,2013-05-09 14:30:00,
2013-05-10 00:45:00,71.2,69.1,29.99,SE,135,4.4,10.0,93,0.05,,BKN040,0.03,VWS V13.01,2013-05-09 14:45:00,
2013-05-10 01:00:00,71.2,69.1,29.99,SE,135,4.4,10.0,93,0.03,,BKN040,0.03,VWS V13.01,2013-05-09 15:00:00,
2013-05-10 01:15:00,71.3,69.2,29.98,SE,135,4.4,10.0,93,0.00,,BKN040,0.03,VWS V13.01,2013-05-09 15:15:00,
2013-05-10 01:30:00,71.2,68.8,29.98,SE,135,3.1,10.0,92,0.00,,BKN040,0.03,VWS V13.01,2013-05-09 15:30:00,
2013-05-10 01:45:00,71.4,69.0,29.98,SE,135,3.1,10.0,92,0.00,,BKN040,0.03,VWS V13.01,2013-05-09 15:45:00,
2013-05-10 02:00:00,71.5,68.7,29.97,SE,135,4.4,8.7,91,0.00,,BKN040,0.03,VWS V13.01,2013-05-09 16:00:00,
2013-05-10 02:15:00,71.7,68.6,29.97,SSE,158,4.4,12.5,90,0.00,,BKN040,0.03,VWS V13.01,2013-05-09 16:15:00,
2013-05-10 02:30:00,71.8,68.7,29.97,SE,135,4.4,17.5,90,0.00,,BKN040,0.03,VWS V13.01,2013-05-09 16:30:00,
2013-05-10 02:45:00,71.8,69.0,29.96,SE,135,4.4,10.0,91,0.00,,BKN040,0.03,VWS V13.01,2013-05-09 16:45:00,
2013-05-10 03:00:00,71.7,68.9,29.96,SE,135,4.4,13.7,91,0.00,,BKN040,0.03,VWS V13.01,2013-05-09 17:00:00,
2013-05-10 03:15:00,71.6,68.8,29.96,SE,135,4.4,8.7,91,0.00,,BKN040,0.03,VWS V13.01,2013-05-09 17:15:00,
2013-05-10 03:30:00,71.6,68.8,29.95,SE,135,4.4,8.7,91,0.00,,BKN040,0.03,VWS V13.01,2013-05-09 17:30:00,
2013-05-10 03:45:00,71.6,68.5,29.95,SE,135,3.1,7.5,90,0.00,,BKN040,0.03,VWS V13.01,2013-05-09 17:45:00,
2013-05-10 04:00:00,71.7,68.6,29.96,SE,135,3.1,8.7,90,0.00,,BKN040,0.03,VWS V13.01,2013-05-09 18:00:00,
2013-05-10 04:15:00,71.8,68.7,29.95,SE,135,3.1,8.7,90,0.00,,BKN040,0.03,VWS V13.01,2013-05-09 18:15:00,
2013-05-10 04:30:00,71.9,68.5,29.95,SE,135,3.1,12.5,89,0.00,,BKN040,0.03,VWS V13.01,2013-05-09 18:30:00,
2013-05-10 04:45:00,71.9,68.8,29.95,SE,135,3.1,7.5,90,0.02,,BKN040,0.05,VWS V13.01,2013-05-09 18:45:00,
2013-05-10 05:00:00,71.4,69.0,29.96,SE,135,3.1,6.2,92,0.02,,BKN040,0.05,VWS V13.01,2013-05-09 19:00:00,
2013-05-10 05:15:00,71.0,68.6,29.95,SE,135,1.9,5.0,92,0.02,,BKN040,0.05,VWS V13.01,2013-05-09 19:15:00,
2013-05-10 05:30:00,70.9,68.8,29.96,SE,135,4.4,11.3,93,0.02,,BKN040,0.05,VWS V13.01,2013-05-09 19:30:00,
2013-05-10 05:45:00,70.8,68.7,29.96,SE,135,3.1,7.5,93,0.02,,BKN040,0.05,VWS V13.01,2013-05-09 19:45:00,
2013-05-10 06:00:00,70.6,68.5,29.97,SE,135,1.9,6.2,93,0.00,,BKN040,0.05,VWS V13.01,2013-05-09 20:00:00,
2013-05-10 06:18:00,70.5,68.4,29.97,SE,135,3.1,7.5,93,0.00,,BKN040,0.05,VWS V13.01,2013-05-09 20:18:00,
2013-05-10 06:23:00,70.6,68.5,29.97,SE,140,4.4,7.5,93,0.00,,BKN040,0.02,VWS V13.01,2013-05-09 20:23:00,
2013-05-10 06:28:00,70.8,68.7,29.97,SE,145,3.1,7.5,93,0.00,,BKN040,0.02,VWS V13.01,2013-05-09 20:28:00,
2013-05-10 06:33:00,70.9,68.8,29.97,SE,144,3.1,7.5,93,0.00,,SCT025,0.02,VWS V13.01,2013-05-09 20:33:00,
2013-05-10 06:45:00,71.0,68.9,29.97,SE,135,3.1,8.7,93,0.00,,SCT025,0.02,VWS V13.01,2013-05-09 20:45:00,
2013-05-10 07:00:00,71.4,69.0,29.97,SE,135,3.1,10.0,92,0.00,,SCT025,0.02,VWS V13.01,2013-05-09 21:00:00,
2013-05-10 07:15:00,71.9,69.1,29.98,SE,135,4.4,10.0,91,0.00,,SCT025,0.02,VWS V13.01,2013-05-09 21:15:00,
2013-05-10 07:30:00,72.2,69.4,29.98,SE,135,3.1,7.5,91,0.00,,SCT025,0.02,VWS V13.01,2013-05-09 21:30:00,
2013-05-10 07:45:00,72.4,69.6,29.97,SE,135,3.1,10.0,91,0.00,,SCT025,0.02,VWS V13.01,2013-05-09 21:45:00,
2013-05-10 08:00:00,72.9,69.5,29.98,SE,135,4.4,11.3,89,0.00,,SCT025,0.02,VWS V13.01,2013-05-09 22:00:00,
2013-05-10 08:15:00,74.0,69.9,29.99,SE,135,5.6,16.3,87,0.00,,SCT025,0.02,VWS V13.01,2013-05-09 22:15:00,
2013-05-10 08:30:00,73.9,70.1,30.00,SE,135,6.9,12.5,88,0.00,,SCT025,0.02,VWS V13.01,2013-05-09 22:30:00,
2013-05-10 08:45:00,73.1,69.7,30.00,SE,135,5.6,13.7,89,0.00,,SCT025,0.02,VWS V13.01,2013-05-09 22:45:00,
2013-05-10 09:00:00,72.7,69.6,30.00,SE,135,4.4,8.7,90,0.00,,SCT025,0.02,VWS V13.01,2013-05-09 23:00:00,
2013-05-10 09:15:00,72.6,69.8,30.00,SE,135,4.4,10.0,91,0.00,,SCT025,0.02,VWS V13.01,2013-05-09 23:15:00,
2013-05-10 09:30:00,73.1,70.0,30.00,SE,135,4.4,10.0,90,0.00,,SCT025,0.02,VWS V13.01,2013-05-09 23:30:00,
2013-05-10 09:45:00,73.3,69.9,30.01,SE,135,3.1,8.7,89,0.00,,SCT025,0.02,VWS V13.01,2013-05-09 23:45:00,
2013-05-10 10:00:00,74.6,70.5,30.01,SE,135,4.4,10.0,87,0.00,,SCT025,0.02,VWS V13.01,2013-05-10 00:00:00,
2013-05-10 10:15:00,76.5,70.6,30.01,SE,135,4.4,12.5,82,0.00,,SCT025,0.02,VWS V13.01,2013-05-10 00:15:00,
2013-05-10 10:30:00,77.0,70.7,30.01,SE,135,5.6,11.3,81,0.00,,SCT025,0.02,VWS V13.01,2013-05-10 00:30:00,
2013-05-10 10:45:00,78.9,70.7,30.00,SE,135,5.6,13.7,76,0.00,,SCT025,0.02,VWS V13.01,2013-05-10 00:45:00,
2013-05-10 11:00:00,80.0,71.0,30.00,SE,135,6.9,15.0,74,0.00,,SCT025,0.02,VWS V13.01,2013-05-10 01:00:00,
2013-05-10 11:15:00,80.1,70.7,30.00,SE,135,5.6,13.7,73,0.00,,SCT025,0.02,VWS V13.01,2013-05-10 01:15:00,
2013-05-10 11:30:00,81.0,69.4,30.00,SE,135,5.6,18.7,68,0.00,,SCT025,0.02,VWS V13.01,2013-05-10 01:30:00,
2013-05-10 11:45:00,81.7,70.1,30.00,SE,135,6.9,20.0,68,0.00,,SCT025,0.02,VWS V13.01,2013-05-10 01:45:00,
2013-05-10 12:00:00,81.7,69.2,29.99,SE,135,6.9,17.5,66,0.00,,SCT025,0.02,VWS V13.01,2013-05-10 02:00:00,
2013-05-10 12:15:00,81.8,69.8,29.98,SE,135,6.9,15.0,67,0.00,,SCT025,0.02,VWS V13.01,2013-05-10 02:15:00,
2013-05-10 12:30:00,82.1,69.2,29.97,SE,135,6.9,17.5,65,0.00,,SCT025,0.02,VWS V13.01,2013-05-10 02:30:00,
2013-05-10 12:45:00,82.1,69.6,29.96,SE,135,8.1,20.0,66,0.00,,SCT025,0.02,VWS V13.01,2013-05-10 02:45:00,
2013-05-10 13:00:00,82.1,68.7,29.95,SE,135,8.1,16.3,64,0.00,,SCT025,0.02,VWS V13.01,2013-05-10 03:00:00,
2013-05-10 13:15:00,82.6,69.7,29.94,SE,135,5.6,16.3,65,0.00,,SCT025,0.02,VWS V13.01,2013-05-10 03:15:00,
2013-05-10 13:30:00,82.9,70.8,29.94,SE,135,8.1,16.3,67,0.00,,SCT025,0.02,VWS V13.01,2013-05-10 03:30:00,
2013-05-10 13:45:00,82.3,69.8,29.94,SE,135,6.9,16.3,66,0.00,,SCT025,0.02,VWS V13.01,2013-05-10 03:45:00,
2013-05-10 14:00:00,81.6,69.6,29.94,SE,135,8.1,21.3,67,0.00,,SCT025,0.02,VWS V13.01,2013-05-10 04:00:00,
2013-05-10 14:15:00,82.0,70.0,29.94,SE,135,5.6,15.0,67,0.00,,SCT025,0.02,VWS V13.01,2013-05-10 04:15:00,
2013-05-10 14:30:00,82.0,70.0,29.93,SE,135,6.9,15.0,67,0.00,,SCT025,0.02,VWS V13.01,2013-05-10 04:30:00,
2013-05-10 14:45:00,82.0,70.0,29.92,SE,135,6.9,20.0,67,0.00,,SCT025,0.02,VWS V13.01,2013-05-10 04:45:00,
2013-05-10 15:00:00,81.4,69.8,29.92,SE,135,8.1,22.5,68,0.00,,SCT025,0.02,VWS V13.01,2013-05-10 05:00:00,
2013-05-10 15:15:00,81.2,69.6,29.92,SE,135,8.1,20.0,68,0.00,,SCT025,0.02,VWS V13.01,2013-05-10 05:15:00,
2013-05-10 15:30:00,81.3,69.7,29.92,SE,135,6.9,20.0,68,0.00,,SCT025,0.02,VWS V13.01,2013-05-10 05:30:00,
2013-05-10 15:45:00,79.4,70.8,29.93,SE,135,8.1,15.0,75,0.00,,SCT025,0.02,VWS V13.01,2013-05-10 05:45:00,
2013-05-10 16:00:00,78.0,69.8,29.93,SE,135,4.4,12.5,76,0.00,,SCT025,0.02,VWS V13.01,2013-05-10 06:00:00,
2013-05-10 16:15:00,77.6,70.2,29.93,SE,135,5.6,15.0,78,0.00,,SCT025,0.02,VWS V13.01,2013-05-10 06:15:00,
2013-05-10 16:30:00,76.9,70.6,29.93,SE,135,4.4,7.5,81,0.00,,SCT025,0.02,VWS V13.01,2013-05-10 06:30:00,
2013-05-10 16:45:00,77.2,70.6,29.93,SE,135,3.1,8.7,80,0.00,,SCT025,0.02,VWS V13.01,2013-05-10 06:45:00,
2013-05-10 17:00:00,77.2,70.6,29.93,SE,135,3.1,8.7,80,0.00,,SCT025,0.02,VWS V13.01,2013-05-10 07:00:00,
2013-05-10 17:15:00,76.2,70.3,29.93,SE,135,3.1,10.0,82,0.00,,SCT025,0.02,VWS V13.01,2013-05-10 07:15:00,
2013-05-10 17:30:00,75.3,69.4,29.94,SE,135,1.9,11.3,82,0.00,,SCT025,0.02,VWS V13.01,2013-05-10 07:30:00,
2013-05-10 17:45:00,74.8,69.3,29.94,SE,135,1.9,6.2,83,0.00,,SCT025,0.02,VWS V13.01,2013-05-10 07:45:00,
2013-05-10 18:00:00,74.6,69.4,29.94,SE,135,3.1,7.5,84,0.00,,SCT025,0.02,VWS V13.01,2013-05-10 08:00:00,
2013-05-10 18:15:00,74.4,68.9,29.95,SE,135,3.1,10.0,83,0.00,,SCT025,0.02,VWS V13.01,2013-05-10 08:15:00,
2013-05-10 18:30:00,74.3,69.2,29.95,SE,135,3.1,8.7,84,0.00,,SCT025,0.02,VWS V13.01,2013-05-10 08:30:00,
2013-05-10 18:45:00,74.0,68.9,29.95,SE,135,3.1,8.7,84,0.00,,SCT025,0.02,VWS V13.01,2013-05-10 08:45:00,
2013-05-10 19:00:00,73.7,68.6,29.95,SE,135,1.9,6.2,84,0.00,,SCT025,0.02,VWS V13.01,2013-05-10 09:00:00,
2013-05-10 19:15:00,73.4,68.6,29.95,SE,135,3.1,8.7,85,0.00,,SCT025,0.02,VWS V13.01,2013-05-10 09:15:00,
2013-05-10 19:30:00,73.3,68.9,29.96,SE,135,3.1,11.3,86,0.00,,SCT025,0.02,VWS V13.01,2013-05-10 09:30:00,
2013-05-10 19:45:00,73.2,68.8,29.96,SE,135,4.4,12.5,86,0.00,,SCT025,0.02,VWS V13.01,2013-05-10 09:45:00,
2013-05-10 20:00:00,73.2,68.8,29.97,SE,135,4.4,11.3,86,0.00,,SCT025,0.02,VWS V13.01,2013-05-10 10:00:00,
2013-05-10 20:15:00,73.2,68.8,29.96,SE,135,3.1,11.3,86,0.00,,SCT025,0.02,VWS V13.01,2013-05-10 10:15:00,
2013-05-10 20:30:00,73.1,68.7,29.96,SE,135,3.1,10.0,86,0.00,,SCT025,0.02,VWS V13.01,2013-05-10 10:30:00,
2013-05-10 20:45:00,73.0,68.9,29.97,SE,135,4.4,12.5,87,0.00,,SCT025,0.02,VWS V13.01,2013-05-10 10:45:00,
2013-05-10 21:00:00,73.1,69.0,29.97,SE,135,4.4,12.5,87,0.00,,SCT025,0.02,VWS V13.01,2013-05-10 11:00:00,
2013-05-10 21:15:00,73.2,68.8,29.97,SE,135,4.4,11.3,86,0.00,,SCT025,0.02,VWS V13.01,2013-05-10 11:15:00,
2013-05-10 21:30:00,73.4,69.0,29.97,SE,135,4.4,12.5,86,0.00,,SCT025,0.02,VWS V13.01,2013-05-10 11:30:00,
2013-05-10 21:45:00,73.3,69.5,29.98,SE,135,4.4,13.7,88,0.00,,SCT025,0.02,VWS V13.01,2013-05-10 11:45:00,
2013-05-10 22:00:00,72.6,69.8,29.98,SE,135,3.1,11.3,91,0.02,,SCT025,0.03,VWS V13.01,2013-05-10 12:00:00,
2013-05-10 22:15:00,71.7,69.6,29.98,SSE,158,3.1,10.0,93,0.03,,SCT025,0.05,VWS V13.01,2013-05-10 12:15:00,
2013-05-10 22:30:00,71.3,69.2,29.97,SE,135,1.9,6.2,93,0.03,,SCT025,0.05,VWS V13.01,2013-05-10 12:30:00,
2013-05-10 22:45:00,71.4,69.3,29.99,SE,135,4.4,12.5,93,0.06,,SCT025,0.07,VWS V13.01,2013-05-10 12:45:00,
2013-05-10 23:00:00,71.3,69.5,29.98,SE,135,3.1,7.5,94,0.08,,SCT025,0.09,VWS V13.01,2013-05-10 13:00:00,
2013-05-10 23:15:00,71.1,69.3,29.98,SE,135,3.1,7.5,94,0.06,,SCT025,0.09,VWS V13.01,2013-05-10 13:15:00,
2013-05-10 23:30:00,71.1,69.3,29.98,SE,135,4.4,10.0,94,0.05,,SCT025,0.09,VWS V13.01,2013-05-10 13:30:00,
2013-05-10 23:45:00,71.1,69.0,29.99,SE,135,3.1,7.5,93,0.05,,SCT025,0.09,VWS V13.01,2013-05-10 13:45:00,